Weather History for Mt. Pocono, PA

Change the Weather History Date:

Sunday, November 4, 2012

  Actual Average Record
Temperature  
Mean Temperature 35 °F 43 °F  
Max Temperature 38 °F 51 °F 71 °F (1987)
Min Temperature 31 °F 35 °F 12 °F (1951)
Degree Days  
Heating Degree Days 30 22  
Month to date heating degree days 111 87  
Since 1 July heating degree days 773 875  
Cooling Degree Days 0 0  
Month to date cooling degree days 0 0  
Year to date cooling degree days 453 314  
Moisture  
Dew Point 27 °F    
Average Humidity 77    
Maximum Humidity 85    
Minimum Humidity 69    
Precipitation  
Precipitation T in 0.14 in 2.00 in (1934)
Month to date precipitation 0.06 0.52  
Year to date precipitation 41.88 40.82  
Sea Level Pressure  
Sea Level Pressure 29.98 in    
Wind  
Wind Speed 13 mph (NW)    
Max Wind Speed 20 mph    
Max Gust Speed 29 mph    
Visibility 10 miles    
Events      
T = Trace of Precipitation, MM = Missing Value Source: NWS Daily Summary

Daily Weather History Graph

Daily Weather History Graph

Search for Another Location

Airport:

Trip Planner

Search our weather history database for the weather conditions in past years. The results will help you decide how hot, cold, wet, or windy it might be!

Date:

Astronomy

Nov. 04, 2012 Rise Set
Actual Time 6:36 AM EST 4:52 PM EST
Civil Twilight 6:07 AM EST 5:21 PM EST
Nautical Twilight 5:35 AM EST 5:54 PM EST
Astronomical Twilight 5:02 AM EST 6:26 PM EST
Moon 9:28 PM EST (11/4) 11:19 AM EST (11/4)
Length of Visible Light 11h 13m
Length of Day
10h 16m
Waning Gibbous, 72% of the Moon is Illuminated
Nov 4
Waning Gibbous
Nov 6
Last Quarter
Nov 13
New
Nov 20
First Quarter
Nov 28
Full

Hourly Weather History & Observations

Time (EST) Temp. Windchill Dew Point Humidity Pressure Visibility Wind Dir Wind Speed Gust Speed Precip Events Conditions
12:17 AM 33.8 °F 24.8 °F 26.6 °F 75% 29.92 in 10.0 mi NW 12.7 mph 27.6 mph N/A   Scattered Clouds
12:46 AM 33.8 °F 24.3 °F 26.6 °F 75% 29.92 in 10.0 mi NW 13.8 mph 23.0 mph N/A   Mostly Cloudy
12:53 AM 33.1 °F 22.6 °F 26.1 °F 75% 29.97 in 10.0 mi WNW 16.1 mph 21.9 mph N/A   Mostly Cloudy
1:53 AM 33.1 °F 22.6 °F 26.1 °F 75% 29.97 in 10.0 mi NW 16.1 mph 23.0 mph N/A   Overcast
1:53 AM 33.1 °F 23.9 °F 27.0 °F 78% 29.97 in 10.0 mi NW 12.7 mph 24.2 mph N/A   Overcast
2:16 AM 33.8 °F 23.5 °F 26.6 °F 75% 29.92 in 10.0 mi NW 16.1 mph 25.3 mph N/A   Overcast
2:53 AM 33.1 °F 22.6 °F 27.0 °F 78% 29.97 in 10.0 mi NW 16.1 mph 21.9 mph N/A   Overcast
3:53 AM 32.0 °F 21.6 °F 27.0 °F 82% 29.97 in 10.0 mi NW 15.0 mph 27.6 mph N/A   Overcast
4:53 AM 32.0 °F 22.1 °F 27.0 °F 82% 29.98 in - NW 13.8 mph 21.9 mph N/A   Overcast
5:53 AM 32.0 °F 23.0 °F 27.0 °F 82% 29.98 in 10.0 mi NW 11.5 mph 23.0 mph N/A   Overcast
6:53 AM 32.0 °F 20.8 °F 27.0 °F 82% 29.99 in 10.0 mi NW 17.3 mph 25.3 mph N/A   Overcast
7:53 AM 32.0 °F 20.5 °F 28.0 °F 85% 30.01 in 10.0 mi NW 18.4 mph 25.3 mph N/A   Overcast
8:53 AM 34.0 °F 24.2 °F 28.0 °F 79% 30.01 in 10.0 mi NNW 15.0 mph 24.2 mph N/A   Mostly Cloudy
9:53 AM 36.0 °F 27.5 °F 28.0 °F 73% 30.00 in 10.0 mi NW 12.7 mph 25.3 mph N/A   Mostly Cloudy
10:06 AM 35.6 °F 26.2 °F 28.4 °F 75% 29.95 in 10.0 mi NNW 15.0 mph 23.0 mph N/A   Mostly Cloudy
10:53 AM 37.0 °F 28.5 °F 28.0 °F 70% 30.00 in 10.0 mi NW 13.8 mph 23.0 mph N/A   Overcast
11:53 AM 36.0 °F 27.1 °F 28.0 °F 73% 29.99 in 10.0 mi NW 13.8 mph 19.6 mph N/A   Overcast
12:53 PM 36.0 °F 27.5 °F 28.0 °F 73% 29.98 in 10.0 mi NW 12.7 mph 19.6 mph 0.00 in   Overcast
1:53 PM 36.0 °F 28.0 °F 28.0 °F 73% 29.98 in 10.0 mi NW 11.5 mph 16.1 mph 0.00 in   Overcast
2:53 PM 36.0 °F 28.5 °F 26.1 °F 67% 29.99 in 10.0 mi NNW 10.4 mph 20.7 mph N/A   Overcast
3:53 PM 35.1 °F 27.4 °F 26.1 °F 70% 29.99 in 10.0 mi NNW 10.4 mph 18.4 mph N/A   Overcast
4:53 PM 34.0 °F 25.0 °F 26.1 °F 73% 29.99 in 10.0 mi NNW 12.7 mph - N/A   Overcast
5:53 PM 34.0 °F 24.6 °F 26.1 °F 73% 30.01 in 10.0 mi NW 13.8 mph 20.7 mph N/A   Overcast
6:53 PM 34.0 °F 26.0 °F 26.1 °F 73% 30.01 in 10.0 mi NNW 10.4 mph 18.4 mph N/A   Overcast
7:53 PM 33.1 °F 24.4 °F 25.0 °F 72% 30.01 in 10.0 mi NW 11.5 mph 16.1 mph N/A   Overcast
8:53 PM 32.0 °F 22.5 °F 25.0 °F 75% 30.01 in 10.0 mi NNW 12.7 mph 25.3 mph N/A   Overcast
9:53 PM 32.0 °F 24.2 °F 24.1 °F 73% 30.01 in 10.0 mi NNW 9.2 mph 18.4 mph N/A   Overcast
10:53 PM 30.9 °F 20.2 °F 23.0 °F 72% 30.00 in 10.0 mi North 15.0 mph 23.0 mph N/A   Overcast